STARLINK-1726, 46362

Orbit data source: Space-Track

STARLINK-1726, 46362 is a payload satellite owned by SpaceX/Seattle (US) in LEO that was launched on Thu, 03 Sep 2020 UTC via an FALCON 9 launch vehicle from the Air Force Eastern Test Range (AFETR). Payload-class satellites include a variety of spacecraft equipped with specific instruments for various scientific and technological missions. These include communications satellites like Starlink; space stations such as the ISS; scientific satellites like the Hubble; Earth observation satellites from companies like Planet Labs, Umbra, and HawkEye 360; GPS; miniature CubeSats for education and research; and military/defense satellites.

Not visible in the next 10 days
Identifier
46362, 2020-062AP
Orbit
LEO
Country
Flag of USUS
Related business
Manufacturer
SpaceX/Seattle
Mission
Partially operational Commercial Communications
Bus & Motor
STARLINK, Unknown motor
Mass
260 kg wet, ~248 kg dry
Launch date (UTC)
2020-09-03 (6 years ago)
Launch vehicle
FALCON 9
Launch site
Air Force Eastern Test Range (AFETR)
Object type
Payload
Rocket body
Debris
Shape & HBR
Box + 1 Pan, 10.1 m
Radar Cross Section
13.562 m², Large (>1 m²)

Expand to show TLE details & history
Last TLE update: 7 hours ago

TLE from 7 hours ago
0 STARLINK-1726
1 46362U 20062AP  26072.85886944  .00648783  20338-3  11545-2 0  9993
2 46362  53.0328 238.6779 0006935 258.4330 101.5921 16.01228547306615
Epoch: 2026-03-13T20:36Z
TLE epoch observation values (Epoch: 2026-03-13T20:36:46.319Z)
Latitude
-0.00006°
Longitude
117.9965°
Altitude
272.858 km
Speed
7.744 km/s
True Right ascension
15h 54m 42s
True Declination
0° 00' 00"
Sunlit
Object was in full shadow at epoch
Visualization orbit readout
Latitude
Unknown
Longitude
Unknown
Altitude
Unknown
Speed
Unknown
Apparent Right ascension
Unknown
Apparent Declination
Unknown
Sunlit
N/A
Visualization observer readout
Local Sidereal Time
07:53:14
Azimuth
Unknown
Elevation
Unknown
Doppler factor
Unknown
Orbital elements
Apogee altitude
275.912 km
Perigee altitude
266.689 km
Semi-major axis
6,649.438 km
Eccentricity
0.00069
Inclination
53.0328°
RAAN
238.6779°
Arg. of periapsis
258.433°
True anomaly
101.66993°
Mean anomaly
101.5921°
Eccentric anomaly
101.63102°
Mean motion
4.00282 °/min
Orbital period
89.94 mins
BSTAR
0.0011545
Loading maneuver chart data...
Computing Atmospheric mass density...
Loading historical data...
Loading historical data...
Loading historical data...
Loading historical data...
Loading historical data...
Loading historical data...
Loading historical data...

Documentation

Showing up to 5 results
|